• Em Portugal
  • Lista de países
  • Para 7 dias
  • Temperatura da água
  • Mapas de satélite
  • Mapa do tempo
  • Widgets de tempo
  • user-avatar
    Iniciar Sessão

    Previsão horária em Magdalenowo

    Hoje, 18 Agosto, Sábado

    Tempo Temperatura Precipitação Vento Pressão Humidade
    00:00 +19°C° 0 mm 1 m/s 751 mmHg 86%
    01:00 +19°C° 0 mm 1 m/s 751 mmHg 87%
    02:00 +18°C° 0 mm 1 m/s 751 mmHg 87%
    03:00 +18°C° 0 mm 1 m/s 751 mmHg 88%
    04:00 +18°C° 0 mm 1 m/s 751 mmHg 89%
    05:00 +18°C° 0 mm 1 m/s 751 mmHg 90%
    06:00 +19°C° 0 mm 1 m/s 751 mmHg 84%
    07:00 +21°C° 0 mm 1 m/s 751 mmHg 79%
    08:00 +21°C° 0 mm 0 m/s 751 mmHg 72%
    09:00 +24°C° 0,1 mm 1 m/s 751 mmHg 67%
    10:00 +26°C° 0,1 mm 1 m/s 751 mmHg 61%
    11:00 +27°C° 0,1 mm 1 m/s 751 mmHg 56%
    12:00 +28°C° 0,2 mm 1 m/s 751 mmHg 54%
    13:00 +28°C° 0,2 mm 1 m/s 751 mmHg 52%
    14:00 +29°C° 0,2 mm 2 m/s 751 mmHg 50%
    15:00 +28°C° 0,2 mm 2 m/s 751 mmHg 54%
    16:00 +28°C° 0,2 mm 2 m/s 751 mmHg 57%
    17:00 +27°C° 0,2 mm 2 m/s 751 mmHg 61%
    18:00 +25°C° 0 mm 2 m/s 751 mmHg 68%
    19:00 +24°C° 0 mm 2 m/s 751 mmHg 75%
    20:00 +21°C° 0 mm 2 m/s 751 mmHg 83%
    21:00 +20°C° 0,1 mm 2 m/s 751 mmHg 86%
    22:00 +19°C° 0,1 mm 2 m/s 752 mmHg 90%
    23:00 +18°C° 0,1 mm 2 m/s 752 mmHg 93%

    Amanhã, 19 Agosto, Domingo

    Tempo Temperatura Precipitação Vento Pressão Humidade
    00:00 +17°C° 0,1 mm 2 m/s 752 mmHg 93%
    01:00 +16°C° 0,1 mm 2 m/s 752 mmHg 93%
    02:00 +15°C° 0,1 mm 2 m/s 752 mmHg 93%
    03:00 +15°C° 0 mm 2 m/s 752 mmHg 92%
    04:00 +14°C° 0 mm 1 m/s 752 mmHg 91%
    05:00 +14°C° 0 mm 1 m/s 752 mmHg 90%
    06:00 +15°C° 0 mm 1 m/s 753 mmHg 85%
    07:00 +16°C° 0 mm 2 m/s 753 mmHg 80%
    08:00 +18°C° 0 mm 2 m/s 753 mmHg 75%
    09:00 +19°C° 0 mm 2 m/s 753 mmHg 69%
    10:00 +21°C° 0 mm 2 m/s 753 mmHg 63%
    11:00 +22°C° 0 mm 3 m/s 753 mmHg 57%
    12:00 +24°C° 0 mm 3 m/s 753 mmHg 56%
    13:00 +25°C° 0 mm 3 m/s 753 mmHg 55%
    14:00 +26°C° 0 mm 3 m/s 753 mmHg 54%
    15:00 +25°C° 0 mm 3 m/s 752 mmHg 55%
    16:00 +25°C° 0 mm 3 m/s 752 mmHg 56%
    17:00 +25°C° 0 mm 2 m/s 752 mmHg 57%
    18:00 +24°C° 0 mm 2 m/s 752 mmHg 64%
    19:00 +22°C° 0 mm 1 m/s 752 mmHg 70%
    20:00 +20°C° 0 mm 1 m/s 752 mmHg 76%
    21:00 +20°C° 0 mm 1 m/s 752 mmHg 78%
    22:00 +19°C° 0 mm 1 m/s 752 mmHg 80%
    23:00 +19°C° 0 mm 1 m/s 752 mmHg 81%

    Depois de amanhã, 20 Agosto, Segunda-feira

    Tempo Temperatura Precipitação Vento Pressão Humidade
    00:00 +18°C° 0 mm 1 m/s 752 mmHg 81%
    01:00 +18°C° 0 mm 1 m/s 752 mmHg 82%
    02:00 +18°C° 0 mm 1 m/s 751 mmHg 82%
    03:00 +17°C° 0 mm 2 m/s 751 mmHg 82%
    04:00 +16°C° 0 mm 2 m/s 751 mmHg 82%
    05:00 +16°C° 0 mm 2 m/s 751 mmHg 81%
    06:00 +18°C° 0 mm 2 m/s 751 mmHg 77%
    07:00 +19°C° 0 mm 3 m/s 751 mmHg 73%
    08:00 +20°C° 0 mm 3 m/s 750 mmHg 69%
    09:00 +22°C° 0 mm 3 m/s 750 mmHg 64%
    10:00 +25°C° 0 mm 4 m/s 750 mmHg 59%
    11:00 +27°C° 0 mm 4 m/s 750 mmHg 54%
    12:00 +27°C° 0 mm 4 m/s 749 mmHg 52%
    13:00 +28°C° 0 mm 4 m/s 749 mmHg 50%
    14:00 +29°C° 0 mm 4 m/s 749 mmHg 48%
    15:00 +28°C° 0 mm 4 m/s 748 mmHg 52%
    16:00 +28°C° 0 mm 3 m/s 748 mmHg 55%
    17:00 +27°C° 0 mm 3 m/s 747 mmHg 59%
    18:00 +26°C° 0,2 mm 3 m/s 747 mmHg 64%
    19:00 +24°C° 0,2 mm 3 m/s 747 mmHg 69%
    20:00 +22°C° 0,2 mm 3 m/s 747 mmHg 74%
    21:00 +21°C° 0,3 mm 3 m/s 746 mmHg 78%
    22:00 +20°C° 0,3 mm 3 m/s 746 mmHg 83%
    23:00 +19°C° 0,3 mm 2 m/s 746 mmHg 87%

    21 Agosto, Terça-feira

    Tempo Temperatura Precipitação Vento Pressão Humidade
    00:00 +19°C° 0 mm 3 m/s 746 mmHg 88%
    01:00 +18°C° 0 mm 3 m/s 746 mmHg 90%
    02:00 +18°C° 0 mm 3 m/s 746 mmHg 91%
    03:00 +18°C° 0 mm 3 m/s 746 mmHg 92%
    04:00 +17°C° 0 mm 4 m/s 746 mmHg 94%
    05:00 +17°C° 0 mm 4 m/s 746 mmHg 95%
    06:00 +17°C° 0 mm 4 m/s 747 mmHg 92%
    07:00 +17°C° 0 mm 5 m/s 747 mmHg 89%
    08:00 +17°C° 0 mm 5 m/s 748 mmHg 86%
    09:00 +19°C° 0,1 mm 5 m/s 748 mmHg 79%
    10:00 +20°C° 0,1 mm 5 m/s 749 mmHg 72%
    11:00 +21°C° 0,1 mm 5 m/s 749 mmHg 65%
    12:00 +21°C° 0,1 mm 5 m/s 749 mmHg 63%
    13:00 +22°C° 0,1 mm 5 m/s 750 mmHg 60%
    14:00 +22°C° 0,1 mm 5 m/s 750 mmHg 57%
    15:00 +22°C° 0 mm 5 m/s 750 mmHg 58%
    16:00 +22°C° 0 mm 4 m/s 750 mmHg 59%
    17:00 +21°C° 0 mm 4 m/s 751 mmHg 59%
    18:00 +20°C° 0 mm 4 m/s 751 mmHg 65%
    19:00 +18°C° 0 mm 3 m/s 751 mmHg 71%
    20:00 +16°C° 0 mm 3 m/s 752 mmHg 76%
    21:00 +14°C° 0 mm 3 m/s 752 mmHg 80%
    22:00 +14°C° 0 mm 2 m/s 753 mmHg 83%
    23:00 +13°C° 0 mm 2 m/s 753 mmHg 86%

    22 Agosto, Quarta-feira

    Tempo Temperatura Precipitação Vento Pressão Humidade
    00:00 +13°C° 0 mm 2 m/s 754 mmHg 88%
    01:00 +12°C° 0 mm 2 m/s 754 mmHg 89%
    02:00 +12°C° 0 mm 2 m/s 754 mmHg 91%
    03:00 +11°C° 0 mm 1 m/s 755 mmHg 91%
    04:00 +11°C° 0 mm 1 m/s 755 mmHg 90%
    05:00 +11°C° 0 mm 1 m/s 755 mmHg 90%
    06:00 +12°C° 0 mm 1 m/s 756 mmHg 83%
    07:00 +14°C° 0 mm 1 m/s 756 mmHg 76%
    08:00 +15°C° 0 mm 1 m/s 756 mmHg 69%
    09:00 +18°C° 0 mm 1 m/s 756 mmHg 62%
    10:00 +20°C° 0 mm 1 m/s 756 mmHg 55%
    11:00 +22°C° 0 mm 1 m/s 756 mmHg 49%
    12:00 +23°C° 0 mm 1 m/s 756 mmHg 46%
    13:00 +23°C° 0 mm 1 m/s 756 mmHg 43%
    14:00 +24°C° 0 mm 1 m/s 756 mmHg 41%
    15:00 +24°C° 0 mm 1 m/s 755 mmHg 41%
    16:00 +24°C° 0 mm 1 m/s 755 mmHg 42%
    17:00 +24°C° 0 mm 1 m/s 755 mmHg 43%
    18:00 +22°C° 0 mm 1 m/s 755 mmHg 48%
    19:00 +20°C° 0 mm 1 m/s 755 mmHg 54%
    20:00 +18°C° 0 mm 1 m/s 755 mmHg 59%
    21:00 +16°C° 0 mm 2 m/s 755 mmHg 62%
    22:00 +15°C° 0 mm 2 m/s 755 mmHg 64%
    23:00 +14°C° 0 mm 3 m/s 755 mmHg 67%

    23 Agosto, Quinta-feira

    Tempo Temperatura Precipitação Vento Pressão Humidade
    00:00 +13°C° 0 mm 3 m/s 755 mmHg 69%
    01:00 +13°C° 0 mm 3 m/s 755 mmHg 72%
    02:00 +13°C° 0 mm 3 m/s 755 mmHg 74%
    03:00 +12°C° 0 mm 3 m/s 754 mmHg 76%
    04:00 +12°C° 0 mm 3 m/s 754 mmHg 78%
    05:00 +12°C° 0 mm 3 m/s 754 mmHg 80%
    06:00 +13°C° 0 mm 3 m/s 754 mmHg 76%
    07:00 +16°C° 0 mm 3 m/s 754 mmHg 72%
    08:00 +17°C° 0 mm 3 m/s 754 mmHg 68%
    09:00 +19°C° 0 mm 3 m/s 754 mmHg 63%
    10:00 +21°C° 0 mm 4 m/s 753 mmHg 57%
    11:00 +23°C° 0 mm 4 m/s 753 mmHg 52%
    12:00 +25°C° 0 mm 4 m/s 753 mmHg 50%
    13:00 +25°C° 0 mm 4 m/s 752 mmHg 48%
    14:00 +26°C° 0 mm 4 m/s 752 mmHg 46%
    15:00 +26°C° 0 mm 4 m/s 752 mmHg 48%
    16:00 +26°C° 0 mm 4 m/s 751 mmHg 50%
    17:00 +26°C° 0 mm 3 m/s 751 mmHg 53%
    18:00 +24°C° 0 mm 3 m/s 750 mmHg 58%
    19:00 +21°C° 0 mm 3 m/s 750 mmHg 64%
    20:00 +19°C° 0 mm 3 m/s 750 mmHg 70%
    21:00 +19°C° 0 mm 3 m/s 750 mmHg 70%
    22:00 +18°C° 0 mm 3 m/s 750 mmHg 71%
    23:00 +17°C° 0 mm 3 m/s 750 mmHg 72%
    Mostrar mais